Date String (YYYY-MM-DD hh:mm:ss) UTC,Instrument flags,Ambient pressure (hPa),Sample flow (lpm),Bypass flow (lpm),Sample temperature (°C),Ambient temperature (°C),ASC tube jacket temperature (°C),LED temperature (°C),Box temperature (°C),Sample RH (%),Span deviation,Mass concentration (μg/m³),Mass concentration (μg/m³),Mass concentration (μg/m³)
DateTimeUTC,F1_M11,P_M11,Q1_M11,Q2_M11,T1_M11,T2_M11,T3_M11,T4_M11,T5_M11,U1_M11,ZSPAN_M11,X2_M11,X0_M11,X1_M11
2022-02-13 06:00:00,,0832.5,4.99,0.00,22.4,21.6,00.0,31.4,24.2,09.6,0000.0,0004.62,0008.95,0004.09
2022-02-13 06:01:00,,0832.5,5.01,0.00,22.4,21.6,00.0,31.4,24.1,10.0,0000.0,0004.71,0008.85,0004.16
2022-02-13 06:02:00,,0832.5,5.00,0.00,22.4,21.6,00.0,31.4,24.1,09.3,0000.0,0004.70,0008.95,0004.14
2022-02-13 06:03:00,,0832.5,5.00,0.00,22.4,21.6,00.0,31.4,24.1,09.1,0000.0,0004.66,0009.06,0004.08
2022-02-13 06:04:00,,0832.4,5.00,0.00,22.4,21.6,00.0,31.4,24.1,09.0,0000.0,0004.61,0009.27,0004.02
2022-02-13 06:05:00,,0832.5,5.00,0.00,22.3,21.5,00.0,31.4,24.1,08.8,0000.0,0004.53,0009.20,0003.95
2022-02-13 06:06:00,,0832.5,5.00,0.00,22.3,21.5,00.0,31.3,24.1,08.9,0000.0,0004.42,0008.90,0003.90
2022-02-13 06:07:00,,0832.5,5.00,0.00,22.3,21.5,00.0,31.3,24.1,09.7,0000.0,0004.49,0009.00,0003.96
2022-02-13 06:08:00,,0832.5,5.01,0.00,22.3,21.5,00.0,31.3,24.1,09.5,0000.0,0004.57,0009.81,0004.06
2022-02-13 06:09:00,,0832.5,4.99,0.00,22.3,21.8,00.0,31.3,24.1,09.9,0000.0,0004.68,0009.99,0004.17
2022-02-13 06:10:00,,0832.5,5.00,0.00,22.4,22.5,00.0,31.4,24.3,09.7,0000.0,0004.77,0010.00,0004.28
2022-02-13 06:11:00,,0832.6,5.00,0.00,22.6,23.1,00.0,31.4,24.5,09.3,0000.0,0004.76,0010.03,0004.27
2022-02-13 06:12:00,,0832.5,5.00,0.00,22.6,23.1,00.0,31.4,24.6,09.5,0000.0,0004.72,0009.90,0004.21
2022-02-13 06:13:00,,0832.5,5.01,0.00,22.7,22.8,00.0,31.5,24.6,09.7,0000.0,0004.82,0010.02,0004.29
2022-02-13 06:14:00,,0832.5,5.01,0.00,22.7,22.6,00.0,31.5,24.5,09.3,0000.0,0004.89,0009.97,0004.34
2022-02-13 06:15:00,,0832.5,4.99,0.00,22.6,22.5,00.0,31.5,24.5,09.5,0000.0,0005.02,0009.97,0004.44
2022-02-13 06:16:00,,0832.5,5.00,0.00,22.6,22.3,00.0,31.5,24.5,09.8,0000.0,0005.20,0010.23,0004.59
2022-02-13 06:17:00,,0832.5,5.00,0.00,22.6,22.2,00.0,31.5,24.4,10.0,0000.0,0005.42,0010.92,0004.76
2022-02-13 06:18:00,,0832.5,5.01,0.00,22.6,22.1,00.0,31.5,24.4,10.1,0000.0,0005.54,0011.46,0004.85
2022-02-13 06:19:00,,0832.5,5.00,0.00,22.6,22.1,00.0,31.5,24.4,10.3,0000.0,0005.72,0011.78,0004.96
2022-02-13 06:20:00,,0832.5,5.00,0.00,22.6,22.0,00.0,31.5,24.3,10.2,0000.0,0005.87,0012.14,0005.03
2022-02-13 06:21:00,,0832.5,5.01,0.00,22.6,21.9,00.0,31.5,24.3,10.0,0000.0,0005.94,0012.32,0005.06
2022-02-13 06:22:00,,0832.5,4.99,0.00,22.6,21.9,00.0,31.5,24.3,10.0,0000.0,0006.05,0012.50,0005.14
2022-02-13 06:23:00,,0832.5,5.01,0.00,22.5,21.8,00.0,31.5,24.3,10.0,0000.0,0006.12,0012.58,0005.21
2022-02-13 06:24:00,,0832.5,4.99,0.00,22.5,21.8,00.0,31.5,24.2,10.0,0000.0,0006.10,0012.54,0005.21
2022-02-13 06:25:00,,0832.5,5.01,0.00,22.5,21.8,00.0,31.5,24.2,10.0,0000.0,0006.20,0012.60,0005.29
2022-02-13 06:26:00,,0832.4,4.99,0.00,22.5,21.7,00.0,31.5,24.2,10.0,0000.0,0006.27,0012.69,0005.35
2022-02-13 06:27:00,,0832.4,5.00,0.00,22.4,21.7,00.0,31.5,24.1,09.9,0000.0,0006.26,0012.62,0005.36
2022-02-13 06:28:00,,0832.4,5.01,0.00,22.4,21.6,00.0,31.5,24.1,09.8,0000.0,0006.21,0012.77,0005.34
2022-02-13 06:29:00,,0832.4,5.00,0.00,22.4,21.6,00.0,31.4,24.1,09.8,0000.0,0006.11,0012.48,0005.27
2022-02-13 06:30:00,,0832.4,4.99,0.00,22.4,21.6,00.0,31.4,24.1,09.9,0000.0,0005.96,0011.30,0005.19
2022-02-13 06:31:00,,0832.4,5.01,0.00,22.4,21.6,00.0,31.4,24.1,09.9,0000.0,0005.80,0010.96,0005.11
2022-02-13 06:32:00,,0832.4,4.98,0.00,22.3,21.6,00.0,31.4,24.1,10.1,0000.0,0005.78,0010.92,0005.10
2022-02-13 06:33:00,,0832.4,5.01,0.00,22.3,21.5,00.0,31.4,24.0,09.9,0000.0,0005.77,0010.84,0005.10
2022-02-13 06:34:00,,0832.3,4.99,0.00,22.3,21.5,00.0,31.4,24.0,09.8,0000.0,0005.68,0010.67,0005.05
2022-02-13 06:35:00,,0832.4,5.01,0.00,22.3,21.6,00.0,31.4,24.0,10.0,0000.0,0005.69,0010.62,0005.06
2022-02-13 06:36:00,,0832.4,5.01,0.00,22.3,22.0,00.0,31.4,24.1,10.0,0000.0,0005.69,0010.59,0005.07
2022-02-13 06:37:00,,0832.4,4.99,0.00,22.5,22.8,00.0,31.4,24.4,09.9,0000.0,0005.66,0010.48,0005.06
2022-02-13 06:38:00,,0832.4,5.00,0.00,22.6,23.1,00.0,31.4,24.6,09.6,0000.0,0005.62,0010.44,0005.03
2022-02-13 06:39:00,,0832.4,5.00,0.00,22.6,23.0,00.0,31.5,24.6,09.6,0000.0,0005.63,0010.25,0005.01
2022-02-13 06:40:00,,0832.3,5.00,0.00,22.6,22.7,00.0,31.5,24.5,09.5,0000.0,0005.64,0010.26,0005.01
2022-02-13 06:41:00,,0832.3,5.00,0.00,22.6,22.5,00.0,31.5,24.4,09.5,0000.0,0005.63,0010.43,0005.01
2022-02-13 06:42:00,,0832.3,5.02,0.00,22.6,22.4,00.0,31.5,24.4,09.5,0000.0,0005.65,0010.46,0005.00
2022-02-13 06:43:00,,0832.2,4.99,0.00,22.6,22.2,00.0,31.5,24.3,09.2,0000.0,0005.53,0010.23,0004.88
2022-02-13 06:44:00,,0832.2,5.02,0.00,22.6,22.1,00.0,31.5,24.3,08.8,0000.0,0005.26,0009.84,0004.65
2022-02-13 06:45:00,,0832.2,4.99,0.00,22.5,22.0,00.0,31.5,24.3,08.7,0000.0,0005.02,0009.90,0004.43
2022-02-13 06:46:00,,0832.1,5.01,0.00,22.5,21.9,00.0,31.5,24.3,09.0,0000.0,0004.82,0009.82,0004.24
2022-02-13 06:47:00,,0832.2,5.00,0.00,22.5,21.9,00.0,31.5,24.2,09.1,0000.0,0004.61,0009.48,0004.09
2022-02-13 06:48:00,,0832.2,4.99,0.00,22.5,21.8,00.0,31.5,24.2,08.4,0000.0,0004.31,0008.96,0003.84
2022-02-13 06:49:00,,0832.2,5.00,0.00,22.5,21.8,00.0,31.5,24.2,08.2,0000.0,0004.06,0008.59,0003.61
2022-02-13 06:50:00,,0832.2,5.01,0.00,22.5,21.8,00.0,31.5,24.2,08.7,0000.0,0003.84,0008.16,0003.42
2022-02-13 06:51:00,,0832.2,5.01,0.00,22.5,21.7,00.0,31.4,24.2,09.1,0000.0,0003.71,0007.77,0003.31
2022-02-13 06:52:00,,0832.2,4.99,0.00,22.4,21.7,00.0,31.4,24.2,09.3,0000.0,0003.66,0007.58,0003.23
2022-02-13 06:53:00,,0832.2,5.01,0.00,22.4,21.7,00.0,31.4,24.2,09.2,0000.0,0003.57,0007.48,0003.16
2022-02-13 06:54:00,,0832.1,4.99,0.00,22.4,21.7,00.0,31.4,24.2,09.2,0000.0,0003.54,0007.48,0003.14
2022-02-13 06:55:00,,0832.1,4.99,0.00,22.4,21.6,00.0,31.4,24.1,09.2,0000.0,0003.64,0007.72,0003.20
2022-02-13 06:56:00,,0832.1,5.01,0.00,22.4,21.6,00.0,31.4,24.1,09.1,0000.0,0003.76,0007.71,0003.31
2022-02-13 06:57:00,,0832.1,4.99,0.00,22.4,21.6,00.0,31.4,24.1,09.1,0000.0,0003.83,0007.57,0003.35
2022-02-13 06:58:00,,0832.1,4.99,0.00,22.3,21.6,00.0,31.4,24.1,09.0,0000.0,0003.80,0007.55,0003.31
2022-02-13 06:59:00,,0832.1,5.01,0.00,22.3,21.6,00.0,31.4,24.1,09.0,0000.0,0003.86,0007.67,0003.33
